Weather in Tolmachevo

Russia / Novosibirsk Oblast     54°58′44″N   82°44′03″E
temp.,
°C
wind,
m/s
gust,
m/s
humid.,
%
clouds,
%
prec.,
mm/h
press.,
hPa
HPBL,
m
1 march, mon
mon101:00−13ese41095100 0.7 1022273
04:00−11se51195100 0.4 1018361
07:00−9se51095100 1.4 1015415
10:00−6se5995100 1.7 1011512
13:00−4ese61096100 4.1 1008523
16:000wsw410100100 3.3 1007582
19:00−2nnw2298100 5.6 1006133
22:00−7nne4696100 1.3 1006159
2 march, tue
tue201:00−10nne3695100 1.8 1008184
04:00−12n359695 0.3 1010184
07:00−15nnw239794 0.5 101356
10:00−16nnw229689 0.1 1015100
13:00−13w238992 0.1 1017359
16:00−12wsw2386100 0.1 1017486
19:00−13ssw1196100 0.2 101721
22:00−14wsw1296100 0.3 101720
3 march, wed
wed301:00−15wsw129697 0.3 101720
04:00−16wsw119777 0.1 101620
07:00−16ssw119684 0.1 101720
10:00−15sw119488 0.1 1017108
13:00−12sw228789 0.2 1018384
16:00−11sw3488100 0.1 1018499
19:00−12ssw3594100 0.1 1019134
22:00−14ssw339688 0.1 102158
4 march, thu
thu401:00−17s479775 0.1 1022115
04:00−17sse499664 0.0 1021177
07:00−14s6119480 0.1 1021373
10:00−10s71294100 0.4 1020569
13:00−7s81291100 0.9 1020655
16:00−5s81391100 0.4 1019667
19:00−6s81493100 0.8 1018615
22:00−6s71490100 0.4 1017588
5 march, fri
fri501:00−7s61388100 0.4 1016486
04:00−10sse5109091 0.0 1014260
07:00−9sse6118880 0.0 1011257
10:00−7sse61194100 0.5 1009415
13:00−3s71195100 3.0 1007759
16:00−1wsw91187100 0.4 1008948
19:00−3wsw71489100 0.5 1013794
22:00−7sw7158568 0.0 1017543